Home   Weather   Newcastle upon Tyne   Past weeks
Flag for United Kingdom

Past Weather in Newcastle upon Tyne, England, United Kingdom — Yesterday and Last 2 Weeks

Now
46 °F

Broken clouds.


Feels Like: 39 °F
Forecast: 44 / 37 °F
Wind: 18 mph from Northeast

Location: Newcastle

Current Time: Mar 28, 2020 at 12:50:55 pm

Latest Report: Mar 28, 2020 at 11:50 am


Visibility: N/A

Pressure: 30.63 "Hg

Humidity: 57%

Dew Point: 32 °F

Location of Newcastle upon TyneLocation

Past Weather in Newcastle upon Tyne — Graph

°F

Newcastle upon Tyne Temperature Yesterday

Maximum temperature yesterday: 50 °F (at 1:20 pm)
Minimum temperature yesterday: 32 °F (at 4:50 am)
Average temperature yesterday: 41 °F

High & Low Weather Summary for the Past Weeks

 TemperatureHumidityPressure
High63 °F (Mar 25, 2:50 pm)100% (Mar 14, 6:50 am)30.63 "Hg (Mar 14, 6:50 am)
Low27 °F (Mar 20, 4:50 am)44% (Mar 23, 3:20 pm)29.39 "Hg (Mar 15, 4:20 am)
Average43 °F80%30.18 "Hg
* Reported Mar 13 11:20 am — Mar 28 11:50 am, Newcastle upon Tyne. Weather by CustomWeather, © 2020

Note: Actual official high and low records may vary slightly from our data, if they occured in-between our weather recording intervals... More about our weather records

Newcastle upon Tyne Weather History for the Previous 24 Hours

Scroll right to see more
 ConditionsComfort  
Time TempWeatherWind HumidityBarometerVisibility
11:50 am
Sat, Mar 28
46 °FBroken clouds.18 mph57%30.63 "HgN/A
11:20 am45 °FScattered clouds.21 mph66%30.63 "HgN/A
10:50 am45 °FBroken clouds.20 mph76%30.60 "HgN/A
10:20 am45 °FPartly sunny.14 mph81%30.60 "HgN/A
9:50 am45 °FBroken clouds.15 mph87%30.60 "HgN/A
9:20 am45 °FBroken clouds.15 mph87%30.60 "HgN/A
8:50 am43 °FLight rain. Broken clouds.16 mph87%30.57 "HgN/A
8:20 am43 °FBroken clouds.15 mph87%30.57 "HgN/A
7:50 am43 °FPartly sunny.12 mph87%30.57 "HgN/A
7:20 am43 °FPartly sunny.12 mph87%30.57 "HgN/A
6:50 am41 °FPartly sunny.8 mph93%30.54 "HgN/A
6:20 am41 °FScattered clouds.9 mph87%30.54 "HgN/A
5:50 am41 °FPartly sunny.9 mph87%30.54 "HgN/A
5:20 am41 °FPassing clouds.10 mph87%30.54 "HgN/A
4:50 am41 °FMostly cloudy.8 mph93%30.54 "HgN/A
4:20 am41 °FPassing clouds.8 mph87%30.54 "HgN/A
3:50 am41 °FLow clouds.9 mph87%30.54 "HgN/A
3:20 am41 °FPassing clouds.8 mph87%30.51 "HgN/A
2:50 am41 °FPassing clouds.8 mph87%30.51 "HgN/A
2:20 am43 °FLow clouds.9 mph81%30.51 "HgN/A
1:50 am43 °FOvercast.7 mph81%30.51 "HgN/A
1:20 am43 °FOvercast.7 mph81%30.51 "HgN/A
12:50 am43 °FOvercast.7 mph81%30.51 "HgN/A
12:20 am43 °FOvercast.8 mph81%30.51 "HgN/A
11:50 pm
Fri, Mar 27
43 °FOvercast.8 mph87%30.51 "HgN/A
11:20 pm43 °FLow clouds.10 mph87%30.51 "HgN/A
10:50 pm43 °FPartly cloudy.12 mph93%30.51 "Hg5 mi
10:20 pm43 °FLight rain. Partly cloudy.16 mph87%30.51 "Hg4 mi
9:50 pm43 °FPassing clouds.15 mph93%30.48 "Hg4 mi
9:20 pm43 °FPassing clouds.15 mph93%30.48 "Hg4 mi
8:50 pm43 °FPassing clouds.15 mph93%30.48 "Hg5 mi
8:20 pm43 °FPassing clouds.13 mph93%30.45 "Hg5 mi
7:50 pm43 °FFog.14 mph87%30.45 "Hg2 mi
7:20 pm43 °FPassing clouds.12 mph93%30.45 "Hg5 mi
6:50 pm43 °FPassing clouds.12 mph93%30.45 "Hg5 mi
6:20 pm45 °FPartly sunny.8 mph81%30.42 "Hg5 mi
5:50 pm45 °FFog.9 mph81%30.42 "Hg2 mi
5:20 pm45 °FPartly sunny.13 mph81%30.42 "HgN/A
4:50 pm45 °FSunny.12 mph76%30.42 "Hg10 mi
4:20 pm45 °FSunny.14 mph71%30.42 "Hg10 mi
3:50 pm48 °FPassing clouds.12 mph62%30.42 "HgN/A
3:20 pm48 °FSunny.12 mph58%30.42 "Hg10 mi
2:50 pm48 °FPassing clouds.10 mph71%30.39 "HgN/A
2:20 pm48 °FSunny.12 mph62%30.39 "Hg10 mi
1:50 pm50 °FPassing clouds.10 mph54%30.39 "HgN/A
1:20 pm50 °FSunny.9 mph47%30.39 "Hg10 mi
12:50 pm48 °FPassing clouds.8 mph62%30.39 "HgN/A
12:20 pm48 °FPassing clouds.7 mph71%30.39 "HgN/A
Weather by CustomWeather, © 2020

See weather overview

Advertising